World > North America > United States > Alabama > Huxford  

Huxford, AL Hourly Weather Forecast

Feedback E-mail the Weather

Quick Clicks

Weather World

24 Hour Forecast

Current Conditions - Mist. Temperature is 68°F20°C, dew point 66°F19°C, humidity 93%. Wind direction is N at 0 mph0 km/h with visibility of 2 mi3 km. Barometric pressure is 30.04 in1017 mb.
Tonight - Mostly cloudy. Areas of fog after midnight. Lows in the mid 60s. Southwest winds 5 to 10 mph... Full Forecast
Friday - Mostly cloudy in the morning, then becoming mostly sunny. Areas of fog in the morning. Highs in the upper 80s. Southwest winds aro.. Full Forecast

Huxford Hourly Weather

24 Hour Weather Scroll
Thu, Apr 18
11:00 pm
Fri, Apr 19
Midnight
Fri, Apr 19
1:00 am
Fri, Apr 19
2:00 am
Fri, Apr 19
3:00 am
Fri, Apr 19
4:00 am
Fri, Apr 19
5:00 am
Fri, Apr 19
6:00 am
Fri, Apr 19
7:00 am
Fri, Apr 19
8:00 am
Fri, Apr 19
9:00 am
Fri, Apr 19
10:00 am
Fri, Apr 19
11:00 am
Fri, Apr 19
Noon
Fri, Apr 19
1:00 pm
Fri, Apr 19
2:00 pm
Fri, Apr 19
3:00 pm
Fri, Apr 19
4:00 pm
Fri, Apr 19
5:00 pm
Fri, Apr 19
6:00 pm
Fri, Apr 19
7:00 pm
Fri, Apr 19
8:00 pm
Fri, Apr 19
9:00 pm
Fri, Apr 19
10:00 pm
MistFogFogFogFogFogFogFogFogPartly Cloudy SunnySunnyPartly Cloudy Patchy Rain NearbyPartly Cloudy Partly Cloudy Partly Cloudy Partly Cloudy Partly Cloudy Partly Cloudy SunnyPartly Cloudy Partly Cloudy Partly Cloudy
Mist Fog Fog Fog Fog Fog Fog Fog Fog Partly Cloudy Sunny Sunny Partly Cloudy Patchy Rain Nearby Partly Cloudy Partly Cloudy Partly Cloudy Partly Cloudy Partly Cloudy Partly Cloudy Sunny Partly Cloudy Partly Cloudy Partly Cloudy
68°F20°C 67°F19°C 67°F19°C 66°F19°C 66°F19°C 65°F18°C 65°F18°C 65°F18°C 67°F20°C 71°F22°C 75°F24°C 78°F25°C 81°F27°C 83°F28°C 85°F30°C 87°F30°C 87°F31°C 87°F31°C 85°F30°C 81°F27°C 76°F25°C 73°F23°C 70°F21°C 68°F20°C
65°F
19°C
66°F
19°C
66°F
19°C
66°F
19°C
65°F
18°C
65°F
18°C
64°F
18°C
64°F
18°C
65°F
18°C
66°F
19°C
67°F
19°C
67°F
19°C
66°F
19°C
65°F
19°C
64°F
18°C
63°F
17°C
61°F
16°C
61°F
16°C
63°F
17°C
66°F
19°C
67°F
19°C
66°F
19°C
65°F
18°C
65°F
18°C
30.03 in
1017 mb
30.03 in
1017 mb
30.03 in
1017 mb
30.03 in
1017 mb
30 in
1016 mb
30.03 in
1017 mb
30 in
1016 mb
30.03 in
1017 mb
30.06 in
1018 mb
30.06 in
1018 mb
30.06 in
1018 mb
30.06 in
1018 mb
30.06 in
1018 mb
30.03 in
1017 mb
30.03 in
1017 mb
30 in
1016 mb
29.97 in
1015 mb
29.94 in
1014 mb
29.94 in
1014 mb
29.97 in
1015 mb
29.97 in
1015 mb
30 in
1016 mb
30.03 in
1017 mb
30.03 in
1017 mb
93%97%98%98%98%98%98%98%98%89%78%68%61%55%49%44%41%41%45%56%72%81%88%92%
NSSSWSWSSWSWSSWWSWSWWSWWSWWSWSWSWSWSWSSWSSWSWSWSWSWSWSSW
2 mph
4 km/h
5 mph
9 km/h
5 mph
8 km/h
4 mph
7 km/h
4 mph
7 km/h
5 mph
8 km/h
4 mph
7 km/h
4 mph
6 km/h
4 mph
6 km/h
4 mph
6 km/h
3 mph
5 km/h
3 mph
4 km/h
4 mph
7 km/h
5 mph
8 km/h
5 mph
8 km/h
4 mph
7 km/h
4 mph
7 km/h
5 mph
9 km/h
6 mph
10 km/h
8 mph
12 km/h
8 mph
13 km/h
7 mph
12 km/h
5 mph
8 km/h
5 mph
8 km/h
0%0%0%0%0%0%0%0%0%0%0%0%0%60%0%0%0%0%0%0%0%0%0%0%
2 mi
3 km
0 mi
0 km
0 mi
0 km
0 mi
0 km
0 mi
0 km
0 mi
0 km
0 mi
0 km
0 mi
0 km
0 mi
0 km
6 mi
10 km
6 mi
10 km
6 mi
10 km
6 mi
10 km
6 mi
10 km
6 mi
10 km
6 mi
10 km
6 mi
10 km
6 mi
10 km
6 mi
10 km
6 mi
10 km
6 mi
10 km
6 mi
10 km
6 mi
10 km
6 mi
10 km

Day/Time
Weather
Condition
Temperature
Dew Point
Pressure
Humidity
Wind Direction
Wind Speed
Prob Precip %
Visibility
POP = Probability of Precipitation. ** Indicates missing data/values from KGZH model statistics.

Trending Headlines

Trending Entertainment Headlines

Huxford Radar Loop

Use the map search tool if you want to place a location marker on the radar map...

48 Hour API Forecast

Prob Precip % = Probability of Precipitation.

Huxford 36 Hour Forecast

POP = Probability of Precipitation. ** Indicates missing data/values from model statistics.

E-mail the Huxford Weather Forecast

Voice your opinion or tell us about page issues...

Huxford AL Weather - 12:23 am

What are people saying?

Contact Us